Torna al catalogo

STARLINK-1664

AttivoComunicazioniVLEO
NORAD 46553·PAYLOAD·🇺🇸 United States

Lanciato Oct 6, 2020 da Cape Canaveral Space Force Station

Loading…

Prossimi Passaggi (prossime 24 ore)

TLE

AggiornatoSource: CelesTrak SupGP

Epoca: Sep 15, 2026, 02:06 UTC

1 46553C 20070X   26258.08798611  .00095000  00000+0  81957-3 0  2589
2 46553  53.0371 300.4806 0007408   9.9943 145.1942 15.68501415    11

Traccia STARLINK-1664 in tempo reale con AllMySat

Download on the App Store